Content
SEND FEEDBACK

Daily
Averages
Monthly
Summary
United States of America

WESTERNPORT, MARYLAND


Home > North America > United States > Maryland
Elevation: 922 feet     Latitude: 39 29N     Longitude: 079 03W

WEATHER
 
SELECT A DAY
Number of Records: 203,936;   Date Range: 5/31/06 - 12/18/14
 
SHARE

PRINT THIS DATA

[ ← Previous Day ]
WEATHER ALMANAC - FEBRUARY 18, 2013
[ Next Day → ]
[ °C ]   °F
Weather ElementAverageHighLow
Temperature24.6 °F39.2 °F (2:40 pm)8.6 °F (12:40 am)
Dewpoint11.9 °F26.6 °F (6:20 pm)1.4 °F (10:20 am)
Humidity60.8 %79 % (12:40 am)34 % (11:40 am)
Barometer30.07 in30.15 in (8:40 am)29.93 in (11:40 pm)
Wind Speed9.5 mph13.8 mph (1:40 pm)
Wind Gust17.3 mph (12:20 am)
Weather ElementAverage
Visibility10 mi
Wind DirectionSSW (212.3 °)

Weather ElementTotal
Precipitation---
Heating Degree Days41.1 (Base 65)
Averaged from 65 records on February 18, 2013
WEATHER CONDITIONS BREAKOUT
WIND DIRECTION BREAKOUT
WEATHER BY HOUR - FEBRUARY 18, 2013
[ °C ]   °F
Local TimeTemperatureDewpointHumidityBarometerVisibilityWind DirectionWind SpeedGust SpeedPrecipitationEventsConditions
12:20 AM10.4 °F3.2 °F73 %30.06 in10.0 miWNW (290°)11.5 mph17.3 mphScattered Clouds
12:40 AM8.6 °F3.2 °F79 %30.06 in10.0 miWest (280°)8.1 mphClear
1:00 AM8.6 °F3.2 °F79 %30.06 in10.0 miWNW (290°)9.2 mphClear
1:20 AM8.6 °F3.2 °F79 %30.07 in10.0 miWNW (290°)8.1 mphClear
2:00 AM8.6 °F3.2 °F79 %30.08 in10.0 miWest (270°)5.8 mphClear
2:20 AM8.6 °F3.2 °F79 %30.08 in10.0 miWest (280°)6.9 mphClear
2:40 AM8.6 °F3.2 °F79 %30.07 in10.0 miWest (280°)9.2 mphClear
3:00 AM8.6 °F3.2 °F79 %30.07 in10.0 miWest (280°)10.4 mphClear
3:20 AM8.6 °F3.2 °F79 %30.06 in10.0 miWest (280°)9.2 mph17.3 mphClear
3:40 AM8.6 °F3.2 °F79 %30.06 in10.0 miWest (280°)9.2 mph17.3 mphClear
4:00 AM8.6 °F3.2 °F79 %30.07 in10.0 miWest (280°)10.4 mphClear
4:20 AM8.6 °F3.2 °F79 %30.08 in10.0 miWest (280°)10.4 mphClear
4:40 AM8.6 °F3.2 °F79 %30.08 in10.0 miWest (270°)9.2 mphClear
5:00 AM8.6 °F3.2 °F79 %30.09 in10.0 miWest (270°)9.2 mph16.1 mphClear
5:20 AM8.6 °F3.2 °F79 %30.09 in10.0 miWest (270°)8.1 mphClear
5:40 AM8.6 °F3.2 °F79 %30.10 in10.0 miWest (280°)6.9 mphClear
6:20 AM8.6 °F3.2 °F79 %30.11 in10.0 miWest (260°)6.9 mphClear
6:40 AM8.6 °F3.2 °F79 %30.11 in10.0 miWest (260°)6.9 mphClear
7:20 AM8.6 °F3.2 °F79 %30.13 in10.0 miWSW (240°)4.6 mphClear
7:40 AM8.6 °F3.2 °F79 %30.13 in10.0 miSW (230°)6.9 mphClear
8:00 AM10.4 °F3.2 °F73 %30.14 in10.0 miSW (230°)6.9 mphClear
8:20 AM12.2 °F5.0 °F73 %30.14 in10.0 miSW (230°)5.8 mphClear
8:40 AM14.0 °F5.0 °F67 %30.15 in10.0 miSSW (210°)6.9 mphClear
9:00 AM15.8 °F5.0 °F62 %30.15 in10.0 miSSW (210°)8.1 mphClear
9:20 AM17.6 °F5.0 °F58 %30.15 in10.0 miSSW (200°)5.8 mphClear
9:40 AM19.4 °F5.0 °F54 %30.15 in10.0 miSouth (190°)5.8 mphClear
10:00 AM21.2 °F5.0 °F50 %30.15 in10.0 miSSW (200°)6.9 mphClear
10:20 AM23.0 °F1.4 °F39 %30.14 in10.0 miSSW (200°)8.1 mphClear
10:40 AM24.8 °F3.2 °F40 %30.15 in10.0 miSSW (210°)11.5 mphClear
11:00 AM26.6 °F3.2 °F37 %30.15 in10.0 miSSW (210°)9.2 mphClear
11:20 AM28.4 °F5.0 °F37 %30.14 in10.0 miSouth (190°)8.1 mphClear
11:40 AM30.2 °F5.0 °F34 %30.13 in10.0 miSouth (190°)5.8 mphClear
12:00 PM30.2 °F6.8 °F37 %30.13 in10.0 miSouth (180°)8.1 mphClear
12:20 PM32.0 °F8.6 °F38 %30.12 in10.0 miSouth (190°)8.1 mphClear
12:40 PM33.8 °F8.6 °F35 %30.11 in10.0 miSSW (200°)10.4 mphClear
1:00 PM33.8 °F10.4 °F38 %30.10 in10.0 miSSW (210°)9.2 mphClear
1:20 PM35.6 °F12.2 °F38 %30.09 in10.0 miSSW (210°)9.2 mphClear
1:40 PM35.6 °F14.0 °F41 %30.08 in10.0 miSSW (200°)13.8 mph17.3 mphClear
2:00 PM37.4 °F15.8 °F41 %30.08 in10.0 miSSW (210°)8.1 mphClear
2:20 PM37.4 °F17.6 °F45 %30.06 in10.0 miSouth (190°)13.8 mphClear
2:40 PM39.2 °F19.4 °F45 %30.06 in10.0 miSSW (200°)12.7 mphClear
3:00 PM39.2 °F19.4 °F45 %30.05 in10.0 miSouth (190°)8.1 mphClear
3:20 PM39.2 °F21.2 °F49 %30.06 in10.0 miSSW (200°)9.2 mphClear
3:40 PM39.2 °F21.2 °F49 %30.05 in10.0 miSouth (190°)10.4 mphClear
4:00 PM39.2 °F21.2 °F49 %30.05 in10.0 miSouth (190°)10.4 mphClear
4:20 PM39.2 °F23.0 °F52 %30.05 in10.0 miSouth (190°)10.4 mph17.3 mphClear
4:40 PM39.2 °F23.0 °F52 %30.05 in10.0 miSouth (190°)11.5 mphClear
5:00 PM39.2 °F23.0 °F52 %30.04 in10.0 miSouth (180°)11.5 mphClear
5:20 PM37.4 °F24.8 °F60 %30.04 in10.0 miSouth (180°)11.5 mphClear
5:40 PM37.4 °F24.8 °F60 %30.04 in10.0 miSouth (180°)12.7 mphClear
6:00 PM37.4 °F24.8 °F60 %30.04 in10.0 miSouth (180°)10.4 mphClear
6:20 PM37.4 °F26.6 °F65 %30.03 in10.0 miSouth (170°)10.4 mphClear
7:00 PM33.8 °F21.2 °F60 %30.02 in10.0 miSSE (150°)11.5 mphClear
7:40 PM33.8 °F21.2 °F60 %30.02 in10.0 miSSE (150°)13.8 mphClear
8:00 PM35.6 °F23.0 °F60 %30.01 in10.0 miSSE (160°)11.5 mphClear
8:20 PM33.8 °F23.0 °F65 %30.00 in10.0 miSSE (160°)12.7 mphClear
8:40 PM35.6 °F23.0 °F60 %29.99 in10.0 miSSE (160°)11.5 mphClear
9:00 PM33.8 °F23.0 °F65 %29.99 in10.0 miSSE (150°)11.5 mphClear
9:20 PM33.8 °F21.2 °F60 %29.99 in10.0 miSSE (150°)10.4 mphClear
9:40 PM33.8 °F21.2 °F60 %29.98 in10.0 miSSE (150°)11.5 mphClear
10:20 PM33.8 °F21.2 °F60 %29.98 in10.0 miSSE (160°)11.5 mphClear
10:40 PM33.8 °F23.0 °F65 %29.97 in10.0 miSSE (160°)10.4 mphClear
11:00 PM33.8 °F23.0 °F65 %29.96 in10.0 miSSE (160°)9.2 mphClear
11:20 PM33.8 °F23.0 °F65 %29.95 in10.0 miSSE (160°)10.4 mphClear
11:40 PM35.6 °F23.0 °F60 %29.93 in10.0 miSouth (170°)13.8 mphClear
Hourly data recorded from K2G4, located miles away from Westernport, Maryland







STORIES FROM OUR PARTNERS